GFATEST OBBI-OBBI

Flight info

Callsign GFATEST
Flight time 0h 36m
Altitude 3000
Route BHR
Aircraft A320/M-SDE3FGHIRWY/LB1

Departure

Time 2026-05-06 03:40
Airport Bahrain International Airport (OBBI)

Arrival

Time 2026-05-06 04:16
Airport Bahrain International Airport (OBBI)
Time Latitude Longitude Altitude Speed Heading
2026-05-06 03:20 26.27526 50.61586 19 ft 0 kts 337°
2026-05-06 03:28 26.27511 50.61593 11 ft 2 kts 337°
2026-05-06 03:28 26.27495 50.61600 22 ft 2 kts 337°
2026-05-06 03:28 26.27481 50.61607 16 ft 2 kts 337°
2026-05-06 03:28 26.27465 50.61611 18 ft 2 kts 35°
2026-05-06 03:29 26.27459 50.61607 17 ft 0 kts 63°
2026-05-06 03:29 26.27460 50.61607 17 ft 0 kts 63°
2026-05-06 03:29 26.27460 50.61609 18 ft 0 kts 66°
2026-05-06 03:30 26.27466 50.61640 18 ft 5 kts 78°
2026-05-06 03:30 26.27478 50.61681 19 ft 6 kts 68°
2026-05-06 03:30 26.27493 50.61720 19 ft 6 kts 66°
2026-05-06 03:30 26.27514 50.61759 17 ft 6 kts 42°
2026-05-06 03:31 26.27558 50.61774 17 ft 8 kts
2026-05-06 03:31 26.27632 50.61780 17 ft 13 kts
2026-05-06 03:31 26.27707 50.61848 17 ft 17 kts 54°
2026-05-06 03:31 26.27697 50.61964 17 ft 17 kts 123°
2026-05-06 03:32 26.27635 50.62072 16 ft 16 kts 123°
2026-05-06 03:32 26.27573 50.62177 18 ft 16 kts 122°
2026-05-06 03:32 26.27513 50.62281 16 ft 16 kts 123°
2026-05-06 03:32 26.27455 50.62382 18 ft 15 kts 123°
2026-05-06 03:33 26.27398 50.62480 25 ft 15 kts 122°
2026-05-06 03:33 26.27344 50.62575 17 ft 15 kts 122°
2026-05-06 03:33 26.27290 50.62668 19 ft 14 kts 122°
2026-05-06 03:33 26.27240 50.62755 20 ft 13 kts 123°
2026-05-06 03:34 26.27193 50.62836 21 ft 13 kts 123°
2026-05-06 03:34 26.27052 50.63061 22 ft 64 kts 123°
2026-05-06 03:34 26.26816 50.63473 20 ft 61 kts 122°
2026-05-06 03:34 26.26597 50.63852 21 ft 56 kts 122°
2026-05-06 03:35 26.26430 50.64140 21 ft 39 kts 123°
2026-05-06 03:35 26.26286 50.64390 20 ft 28 kts 122°
2026-05-06 03:35 26.26174 50.64585 21 ft 31 kts 123°
2026-05-06 03:35 26.26058 50.64786 22 ft 21 kts 123°
2026-05-06 03:36 26.26022 50.64917 -5 ft 13 kts 68°
2026-05-06 03:36 26.26034 50.64942 20 ft 0 kts 59°
2026-05-06 03:37 26.26038 50.64949 20 ft 0 kts 56°
2026-05-06 03:39 26.26049 50.64963 20 ft 4 kts 45°
2026-05-06 03:39 26.26099 50.65001 19 ft 12 kts 29°
2026-05-06 03:39 26.26167 50.64953 18 ft 10 kts 304°
2026-05-06 03:39 26.26176 50.64937 19 ft 2 kts 303°
2026-05-06 03:40 26.26206 50.64884 17 ft 32 kts 303°
2026-05-06 03:40 26.26560 50.64268 16 ft 151 kts 302°
2026-05-06 03:40 26.27228 50.63123 602 ft 195 kts 306°
2026-05-06 03:40 26.28101 50.61834 1654 ft 216 kts 305°
2026-05-06 03:41 26.29357 50.60638 2254 ft 272 kts 330°
2026-05-06 03:41 26.31351 50.59926 2475 ft 329 kts 346°
2026-05-06 03:41 26.33748 50.59391 2526 ft 370 kts 348°
2026-05-06 03:41 26.36362 50.58821 2522 ft 395 kts 348°
2026-05-06 03:42 26.39046 50.58234 3412 ft 377 kts 348°
2026-05-06 03:42 26.41376 50.57729 4622 ft 310 kts 347°
2026-05-06 03:42 26.43443 50.57353 4657 ft 292 kts 356°
2026-05-06 03:42 26.45408 50.57710 4287 ft 286 kts 21°
2026-05-06 03:43 26.47174 50.58790 3577 ft 293 kts 32°
2026-05-06 03:43 26.48899 50.60037 2891 ft 298 kts 37°
2026-05-06 03:43 26.50207 50.61746 2607 ft 283 kts 66°
2026-05-06 03:43 26.50639 50.63822 2517 ft 272 kts 94°
2026-05-06 03:44 26.50149 50.65818 2528 ft 268 kts 121°
2026-05-06 03:44 26.48875 50.67314 2532 ft 268 kts 147°
2026-05-06 03:44 26.47266 50.68372 2532 ft 269 kts 152°
2026-05-06 03:44 26.45620 50.69369 2533 ft 269 kts 153°
2026-05-06 03:45 26.43971 50.70359 2531 ft 269 kts 153°
2026-05-06 03:45 26.42331 50.71361 2532 ft 269 kts 153°
2026-05-06 03:45 26.40632 50.72201 2527 ft 266 kts 169°
2026-05-06 03:45 26.38818 50.72145 2528 ft 262 kts 198°
2026-05-06 03:46 26.37302 50.71161 2526 ft 260 kts 225°
2026-05-06 03:46 26.36385 50.69443 2529 ft 263 kts 254°
2026-05-06 03:46 26.36322 50.67455 2531 ft 265 kts 282°
2026-05-06 03:46 26.37089 50.65586 2535 ft 267 kts 301°
2026-05-06 03:47 26.38115 50.63851 2528 ft 270 kts 303°
2026-05-06 03:47 26.39183 50.62120 2526 ft 271 kts 305°
2026-05-06 03:47 26.40581 50.60699 2526 ft 276 kts 328°
2026-05-06 03:47 26.42409 50.60038 2529 ft 279 kts 354°
2026-05-06 03:48 26.44315 50.60309 2529 ft 278 kts 20°
2026-05-06 03:48 26.45930 50.61468 2523 ft 278 kts 47°
2026-05-06 03:48 26.46943 50.63264 2526 ft 269 kts 72°
2026-05-06 03:48 26.47192 50.65216 2531 ft 244 kts 96°
2026-05-06 03:49 26.46791 50.66959 2526 ft 225 kts 118°
2026-05-06 03:49 26.45733 50.68405 2533 ft 258 kts 146°
2026-05-06 03:49 26.44073 50.69164 2532 ft 254 kts 170°
2026-05-06 03:49 26.42445 50.69573 2528 ft 234 kts 168°
2026-05-06 03:50 26.40901 50.69978 2531 ft 230 kts 168°
2026-05-06 03:50 26.39326 50.70396 2534 ft 234 kts 168°
2026-05-06 03:50 26.37739 50.70816 2532 ft 234 kts 168°
2026-05-06 03:50 26.36131 50.71124 2533 ft 235 kts 177°
2026-05-06 03:51 26.34542 50.70881 2525 ft 230 kts 209°
2026-05-06 03:51 26.33482 50.69621 2531 ft 227 kts 248°
2026-05-06 03:51 26.33434 50.67886 2531 ft 232 kts 289°
2026-05-06 03:51 26.34439 50.66496 2536 ft 236 kts 329°
2026-05-06 03:52 26.36034 50.66142 2535 ft 241 kts
2026-05-06 03:52 26.37491 50.67002 2530 ft 242 kts 49°
2026-05-06 03:52 26.38348 50.68609 2531 ft 243 kts 70°
2026-05-06 03:52 26.38784 50.70427 2531 ft 243 kts 82°
2026-05-06 03:53 26.39026 50.72291 2532 ft 243 kts 80°
2026-05-06 03:53 26.39303 50.74148 2531 ft 243 kts 86°
2026-05-06 03:53 26.39136 50.76001 2528 ft 240 kts 111°
2026-05-06 03:53 26.38203 50.77501 2524 ft 236 kts 144°
2026-05-06 03:54 26.36733 50.78208 2516 ft 230 kts 175°
2026-05-06 03:54 26.35171 50.78006 2513 ft 227 kts 203°
2026-05-06 03:54 26.33804 50.77147 2521 ft 227 kts 213°
2026-05-06 03:54 26.32478 50.76194 2528 ft 226 kts 214°
2026-05-06 03:55 26.31249 50.75114 2528 ft 226 kts 231°
2026-05-06 03:55 26.30591 50.73532 2530 ft 229 kts 260°
2026-05-06 03:55 26.30740 50.71769 2532 ft 233 kts 288°
2026-05-06 03:55 26.31682 50.70304 2532 ft 237 kts 320°
2026-05-06 03:56 26.33198 50.69599 2532 ft 241 kts 353°
2026-05-06 03:56 26.34846 50.69912 2539 ft 246 kts 26°
2026-05-06 03:56 26.36293 50.70914 2534 ft 244 kts 33°
2026-05-06 03:56 26.37539 50.72177 2529 ft 243 kts 57°
2026-05-06 03:57 26.38113 50.73927 2532 ft 243 kts 86°
2026-05-06 03:57 26.37879 50.75762 2531 ft 240 kts 115°
2026-05-06 03:57 26.36913 50.77251 2525 ft 238 kts 143°
2026-05-06 03:57 26.35465 50.78050 2531 ft 232 kts 170°
2026-05-06 03:58 26.33881 50.78026 2533 ft 229 kts 197°
2026-05-06 03:58 26.32456 50.77272 2535 ft 227 kts 212°
2026-05-06 03:58 26.31139 50.76300 2527 ft 227 kts 221°
2026-05-06 03:58 26.30203 50.74901 2524 ft 227 kts 246°
2026-05-06 03:59 26.29914 50.73186 2518 ft 228 kts 271°
2026-05-06 03:59 26.30334 50.71486 2516 ft 232 kts 297°
2026-05-06 03:59 26.31419 50.70153 2512 ft 237 kts 324°
2026-05-06 03:59 26.32968 50.69520 2512 ft 242 kts 353°
2026-05-06 04:00 26.34626 50.69785 2504 ft 244 kts 23°
2026-05-06 04:00 26.36089 50.70733 2513 ft 243 kts 33°
2026-05-06 04:00 26.37377 50.71898 2513 ft 243 kts 52°
2026-05-06 04:00 26.38067 50.73592 2516 ft 243 kts 82°
2026-05-06 04:01 26.37958 50.75447 2529 ft 241 kts 110°
2026-05-06 04:01 26.37091 50.77015 2531 ft 238 kts 138°
2026-05-06 04:01 26.35688 50.77927 2531 ft 234 kts 166°
2026-05-06 04:01 26.34094 50.78005 2531 ft 230 kts 193°
2026-05-06 04:02 26.32633 50.77300 2536 ft 230 kts 211°
2026-05-06 04:02 26.31289 50.76334 2531 ft 230 kts 218°
2026-05-06 04:02 26.30300 50.74960 2533 ft 229 kts 245°
2026-05-06 04:02 26.29961 50.73240 2532 ft 230 kts 270°
2026-05-06 04:03 26.30352 50.71515 2526 ft 233 kts 297°
2026-05-06 04:03 26.31435 50.70168 2525 ft 237 kts 324°
2026-05-06 04:03 26.32979 50.69533 2522 ft 241 kts 352°
2026-05-06 04:03 26.34629 50.69791 2517 ft 242 kts 23°
2026-05-06 04:04 26.36084 50.70734 2521 ft 242 kts 33°
2026-05-06 04:04 26.37386 50.71911 2515 ft 242 kts 52°
2026-05-06 04:04 26.38063 50.73607 2513 ft 241 kts 83°
2026-05-06 04:04 26.37932 50.75449 2525 ft 240 kts 110°
2026-05-06 04:05 26.37048 50.76995 2528 ft 238 kts 139°
2026-05-06 04:05 26.35635 50.77884 2531 ft 233 kts 167°
2026-05-06 04:05 26.34043 50.77937 2530 ft 229 kts 194°
2026-05-06 04:05 26.32596 50.77210 2540 ft 229 kts 212°
2026-05-06 04:06 26.31269 50.76242 2531 ft 227 kts 220°
2026-05-06 04:06 26.30309 50.74857 2532 ft 230 kts 246°
2026-05-06 04:06 26.29999 50.73120 2533 ft 232 kts 272°
2026-05-06 04:06 26.30439 50.71405 2531 ft 234 kts 299°
2026-05-06 04:07 26.31565 50.70094 2533 ft 238 kts 326°
2026-05-06 04:07 26.33133 50.69516 2532 ft 241 kts 356°
2026-05-06 04:07 26.34777 50.69863 2539 ft 245 kts 25°
2026-05-06 04:07 26.36235 50.70840 2535 ft 245 kts 32°
2026-05-06 04:08 26.37510 50.72074 2529 ft 243 kts 56°
2026-05-06 04:08 26.38122 50.73809 2535 ft 243 kts 84°
2026-05-06 04:08 26.37907 50.75641 2531 ft 240 kts 115°
2026-05-06 04:08 26.36902 50.77094 2530 ft 238 kts 140°
2026-05-06 04:09 26.35656 50.78302 2533 ft 237 kts 143°
2026-05-06 04:09 26.34384 50.79477 2534 ft 237 kts 143°
2026-05-06 04:09 26.33108 50.80641 2534 ft 237 kts 142°
2026-05-06 04:09 26.31831 50.81805 2533 ft 237 kts 143°
2026-05-06 04:10 26.30550 50.82956 2528 ft 236 kts 143°
2026-05-06 04:10 26.29269 50.84107 2523 ft 237 kts 143°
2026-05-06 04:10 26.27881 50.85058 2519 ft 233 kts 166°
2026-05-06 04:10 26.26301 50.85096 2519 ft 227 kts 198°
2026-05-06 04:11 26.24877 50.84343 2529 ft 228 kts 211°
2026-05-06 04:11 26.23443 50.83358 2501 ft 244 kts 213°
2026-05-06 04:11 26.22070 50.82382 2500 ft 225 kts 213°
2026-05-06 04:11 26.20873 50.81411 2503 ft 208 kts 225°
2026-05-06 04:12 26.20036 50.80163 2501 ft 191 kts 243°
2026-05-06 04:12 26.19718 50.79283 2519 ft 182 kts 252°
2026-05-06 04:12 26.19548 50.77450 2366 ft 180 kts 273°
2026-05-06 04:12 26.19829 50.76094 2189 ft 181 kts 288°
2026-05-06 04:13 26.20210 50.75250 2050 ft 180 kts 300°
2026-05-06 04:13 26.21105 50.73709 1761 ft 175 kts 301°
2026-05-06 04:13 26.21545 50.72949 1623 ft 171 kts 301°
2026-05-06 04:13 26.22179 50.71854 1410 ft 166 kts 302°
2026-05-06 04:14 26.22795 50.70788 1197 ft 162 kts 302°
2026-05-06 04:14 26.23394 50.69752 996 ft 157 kts 303°
2026-05-06 04:14 26.23973 50.68750 818 ft 149 kts 304°
2026-05-06 04:14 26.24523 50.67798 639 ft 142 kts 307°
2026-05-06 04:15 26.25047 50.66912 429 ft 136 kts 308°
2026-05-06 04:15 26.25557 50.66055 257 ft 130 kts 305°
2026-05-06 04:15 26.26037 50.65204 134 ft 128 kts 304°
2026-05-06 04:15 26.26513 50.64367 25 ft 126 kts 304°
2026-05-06 04:16 26.27008 50.63510 15 ft 124 kts 302°
2026-05-06 04:16 26.27347 50.62908 17 ft 69 kts 303°
2026-05-06 04:16 26.27583 50.62502 17 ft 58 kts 301°
2026-05-06 04:16 26.27782 50.62158 18 ft 35 kts 302°
2026-05-06 04:17 26.27762 50.62035 17 ft 27 kts 219°